Wind_Speed
6 6 6 6 4 3 3 2 2 3 4 5 6 8 9 10 11 10 9 9 9 9 9 9 8 8 7 7 7 6 6 6 5 5 5 4 4 4 4 4 4 4 4 4 5 5 4 4 4
6 6 5 5 5 5 4 4 3 4 5 5 6 8 10 10 11 10 9 9 9 9 9 9 8 8 8 7 7 7 7 6 5 5 4 5 5 5 5 5 5 5 5 5 6 5 5 5 5
7 7 6 6 6 7 5 5 5 5 6 6 6 8 10 11 11 9 9 9 9 9 9 8 8 8 8 8 8 8 7 6 6 5 5 5 6 6 6 6 6 6 6 6 6 6 6 6 5
9 8 7 6 6 7 6 5 5 5 6 6 7 8 10 10 11 10 9 9 9 9 9 9 8 8 8 8 8 8 8 7 7 6 6 6 6 7 7 7 7 6 6 7 6 6 6 5 5
10 9 8 7 8 8 7 6 5 5 6 7 7 8 9 10 11 10 9 9 9 10 10 9 8 8 7 8 8 8 7 7 7 7 6 7 7 7 8 8 7 6 6 7 6 7 6 6 6
11 10 9 9 10 9 8 7 7 8 7 8 8 8 9 9 10 10 10 10 10 11 10 10 9 9 8 7 8 8 7 7 7 7 7 7 8 8 8 8 8 8 7 7 6 7 7 7 7
11 10 10 10 10 10 9 8 8 8 9 8 8 9 9 9 10 11 11 11 11 11 11 11 11 10 9 8 7 7 8 8 8 8 8 8 8 9 9 9 10 9 8 7 7 8 8 8 8
12 11 10 10 9 10 10 10 9 10 10 9 9 10 11 11 11 11 11 11 11 11 12 12 11 9 8 8 8 9 8 8 8 8 8 8 8 9 10 10 10 8 8 8 8 8 8 8 9
12 11 9 9 10 10 11 11 11 11 11 10 10 11 12 12 11 12 11 11 12 12 12 12 11 10 9 9 9 9 9 9 9 9 9 9 9 10 10 10 10 9 9 9 9 10 9 10 10
13 11 9 10 10 11 11 11 12 12 12 11 12 12 12 12 12 12 12 11 12 11 11 11 11 10 10 9 9 9 9 9 9 10 10 10 10 10 10 10 11 11 11 11 11 10 11 10 11
13 12 11 11 12 12 12 11 12 13 12 13 13 14 13 13 13 13 12 11 11 11 11 11 11 11 11 10 10 9 9 9 9 10 10 10 11 10 10 10 11 12 11 12 12 12 11 11 11
15 14 14 13 13 13 12 12 12 13 12 13 14 15 14 13 13 12 12 12 10 10 11 11 11 12 11 11 10 10 10 10 10 9 10 11 11 11 11 11 11 12 12 13 13 13 12 11 11
16 16 15 14 13 13 13 13 12 12 13 13 14 14 13 13 13 12 13 12 10 10 10 11 12 12 11 10 10 10 10 10 11 10 10 11 11 11 11 11 11 12 12 13 14 13 12 13 13
16 16 15 14 14 13 13 12 12 13 14 14 15 14 12 13 13 13 13 13 12 12 12 11 12 11 11 11 11 10 10 11 11 11 11 12 12 12 12 12 12 12 12 13 12 13 13 13 13
16 16 15 15 14 14 13 11 12 13 14 15 15 14 13 14 14 14 13 13 13 13 13 13 12 11 10 11 11 11 11 11 12 12 12 12 12 12 13 13 12 12 12 13 13 13 13 13 14
16 16 15 14 14 14 14 12 12 13 14 15 15 15 14 15 15 14 14 14 14 13 13 13 13 12 11 11 11 11 11 11 11 12 12 13 12 12 13 12 12 12 12 13 13 14 13 14 14
17 16 16 15 15 15 15 14 13 14 15 16 16 16 15 14 14 14 14 14 14 14 13 13 13 11 12 12 11 11 11 11 12 12 12 12 13 12 12 12 12 12 12 12 13 14 14 14 14
18 17 16 16 16 16 15 15 15 15 16 16 16 15 15 15 15 15 15 15 14 13 13 13 12 12 13 13 12 11 11 11 11 11 12 12 12 12 11 11 11 12 12 12 13 13 13 14 15
19 18 17 17 18 18 17 16 15 16 16 16 16 16 16 16 16 16 17 16 14 13 13 13 12 13 13 13 12 11 10 10 10 11 11 11 11 11 11 11 10 11 11 11 12 12 12 14 15
20 19 18 18 19 19 19 17 16 17 17 17 17 17 16 16 15 16 17 17 15 14 14 13 12 13 12 13 12 11 11 10 10 10 11 11 10 11 11 11 11 11 11 10 11 12 12 14 15
20 19 19 20 20 20 19 18 17 17 17 17 17 16 16 16 15 15 17 17 16 15 14 13 12 13 14 12 12 11 11 10 10 10 11 11 10 10 10 11 11 11 11 11 11 12 12 13 14
21 20 20 21 21 21 20 19 16 17 18 17 17 16 16 15 15 15 16 15 15 14 13 12 12 13 11 10 10 9 9 10 10 11 10 10 9 9 10 11 11 12 12 11 12 12 11 12 14
21 21 22 22 22 22 21 21 18 17 17 17 17 17 17 17 16 15 15 14 13 13 12 11 11 11 9 8 8 8 9 9 11 10 10 9 9 9 10 11 11 11 12 12 12 12 12 13 14
23 23 23 23 22 22 21 22 20 18 17 17 17 17 17 16 16 15 14 13 12 12 11 11 10 10 10 9 9 9 9 9 10 10 10 9 8 9 10 10 10 10 11 12 13 13 13 13 14
23 23 23 23 23 22 21 22 21 18 18 17 17 17 16 16 15 14 14 13 13 12 11 10 10 11 11 10 9 9 10 10 10 9 9 8 8 8 9 9 10 11 11 12 13 13 13 14 15
22 23 23 24 23 22 21 22 20 19 18 17 17 16 16 16 15 14 14 14 13 12 11 9 10 10 10 9 10 9 9 9 9 9 9 9 9 9 9 9 10 10 11 11 12 13 14 14 14
23 23 23 23 24 23 22 20 18 17 17 17 17 16 16 15 15 15 14 13 12 11 11 10 10 10 10 10 10 9 8 8 8 9 9 9 9 9 9 9 10 9 10 10 11 13 13 14 14
24 23 23 23 23 23 22 20 18 17 17 17 17 17 16 15 14 14 13 12 11 10 11 11 10 10 10 10 9 9 9 7 8 8 9 9 9 8 8 9 10 10 10 10 10 11 12 13 14
24 24 24 23 24 23 23 20 17 16 16 16 16 16 15 15 14 13 13 13 12 11 11 10 10 9 9 9 8 8 8 8 8 8 8 9 9 8 8 9 10 10 10 10 11 10 10 12 13
24 24 24 24 24 23 23 20 18 17 17 16 15 15 15 15 14 13 13 12 11 11 11 10 9 8 9 9 9 8 8 8 8 9 9 9 8 8 9 9 9 9 10 10 11 11 11 12 12
Wind_Direction
224 224 225 223 217 227 238 248 281 313 337 1 4 360 359 355 354 349 347 345 345 340 334 335 333 329 327 325 324 326 327 327 322 322 319 318 319 315 320 316 302 301 300 304 302 298 284 287 301
234 232 230 231 235 243 252 262 285 305 327 341 352 351 351 348 346 345 341 336 336 334 329 329 327 326 325 319 314 314 315 317 313 306 304 307 306 303 310 310 297 291 292 292 288 288 278 281 289
234 238 243 243 243 247 254 270 292 305 313 324 339 345 347 344 343 340 335 331 332 329 326 325 323 323 322 317 312 309 306 306 303 295 293 295 298 298 296 301 295 289 286 285 284 283 275 273 276
236 239 245 248 249 251 256 270 290 299 304 317 332 338 342 340 337 335 332 330 329 327 326 325 323 322 320 313 312 309 306 300 295 289 286 286 288 292 293 295 294 289 281 281 280 276 275 270 274
239 239 239 242 249 253 258 268 279 292 305 314 326 333 337 335 333 331 329 327 325 326 327 324 327 326 322 313 308 305 303 298 292 286 281 279 279 281 286 285 290 288 282 279 275 272 273 269 272
239 238 236 238 247 254 256 267 280 286 296 310 317 325 333 333 331 328 326 325 324 324 324 325 325 325 319 311 305 301 298 294 286 284 282 279 277 276 277 276 279 282 280 276 270 269 271 270 270
235 236 236 241 248 254 259 270 278 285 296 304 310 314 321 325 325 324 322 323 322 323 324 324 327 323 313 306 302 298 292 289 284 283 283 281 281 279 275 270 270 273 271 266 265 268 269 267 267
235 236 238 243 248 252 262 270 278 287 297 300 303 311 314 319 323 322 319 317 317 320 322 324 323 323 313 303 298 294 290 287 285 285 283 281 281 278 275 272 266 265 265 269 268 266 265 267 266
237 237 239 242 247 253 263 269 278 287 294 299 305 309 312 312 318 319 318 318 319 320 320 323 324 321 313 303 297 295 291 289 284 283 282 279 279 277 274 271 262 259 260 264 267 264 261 262 263
239 239 239 242 248 254 259 268 277 284 294 297 303 306 306 306 311 314 317 320 321 321 320 320 324 321 315 304 297 295 292 290 286 281 280 276 272 273 273 268 261 259 259 258 258 260 258 261 259
240 239 241 245 250 255 260 267 275 283 291 296 299 302 303 303 308 310 312 317 319 319 321 322 324 324 317 309 300 291 286 286 288 285 279 275 270 270 269 264 259 257 261 258 254 258 256 255 254
239 239 240 246 252 255 264 271 278 284 290 293 297 302 302 303 306 307 308 310 313 315 319 319 317 320 315 308 299 289 284 287 286 284 277 275 271 265 264 262 259 256 258 259 254 254 254 249 250
241 241 244 247 251 256 263 271 277 284 288 294 298 302 300 299 301 299 300 298 301 305 308 313 317 316 314 311 305 291 289 286 283 279 276 275 273 266 264 260 260 257 259 259 252 252 251 250 251
244 243 243 247 252 256 264 270 277 284 288 294 299 301 295 294 297 295 296 299 303 306 303 308 310 308 309 308 306 296 288 287 283 279 277 277 274 267 261 262 260 257 258 259 252 251 249 250 251
244 242 243 248 250 255 263 266 275 282 287 292 296 299 295 294 292 292 293 295 296 300 300 302 302 300 301 304 303 294 288 286 285 279 278 279 274 267 261 262 259 258 255 251 251 253 249 252 252
240 242 244 248 253 258 262 266 272 278 285 291 294 295 295 294 291 291 294 295 294 294 297 299 294 292 296 297 296 292 285 284 284 281 280 279 273 267 261 260 258 255 253 252 254 253 250 250 249
240 244 246 248 254 258 261 266 272 278 285 289 291 293 291 289 289 292 294 294 294 295 296 294 289 287 287 288 287 285 280 281 285 284 281 278 271 262 260 260 258 254 255 254 253 251 252 249 246
245 248 248 250 256 259 262 266 271 277 284 287 291 292 287 285 292 293 295 294 294 293 293 290 282 282 281 285 282 277 276 279 284 287 282 275 268 256 256 258 256 256 256 254 255 254 251 246 244
246 249 249 252 257 261 264 268 271 277 282 285 288 289 285 285 289 289 291 294 293 290 289 287 278 281 280 282 278 271 271 273 280 286 287 277 266 256 253 254 253 254 256 256 258 255 252 243 243
247 250 251 253 258 263 265 268 271 275 279 281 283 286 283 283 288 292 291 293 293 290 287 288 279 277 279 278 273 268 266 268 276 284 284 281 268 258 249 250 253 254 255 257 258 256 253 246 243
247 251 253 255 257 262 267 268 270 273 277 278 281 285 288 287 289 291 292 291 291 289 287 285 279 277 275 273 269 267 268 270 279 282 284 282 270 260 251 245 253 252 255 259 259 257 252 247 245
246 249 252 254 257 261 266 269 270 272 273 274 277 282 287 287 286 289 293 295 292 288 285 284 279 280 280 274 264 265 266 269 275 280 281 275 266 261 252 247 251 252 255 256 254 255 252 249 248
242 245 250 254 258 260 264 268 269 270 269 271 274 278 284 286 288 289 292 293 290 285 283 283 279 275 278 274 264 260 264 274 278 280 278 274 268 261 254 250 254 255 255 254 253 253 252 253 251
239 243 249 253 256 259 262 268 268 268 268 269 272 278 282 285 286 289 291 290 289 286 284 280 278 276 276 272 267 269 270 276 277 277 276 274 269 262 257 257 257 257 256 256 256 256 258 257 254
241 243 248 252 255 260 264 267 271 270 270 270 272 278 280 281 282 286 288 287 285 284 283 277 271 272 269 266 266 271 269 272 273 272 274 268 261 261 259 260 260 259 260 259 259 261 263 261 257
245 246 249 256 260 262 265 268 272 272 269 271 276 279 278 276 277 281 284 285 282 277 275 271 267 268 263 263 265 266 268 267 267 264 263 262 258 259 260 263 264 264 263 261 262 264 263 261 259
243 247 251 257 261 263 265 269 273 275 273 275 277 277 276 274 275 277 280 282 280 274 269 266 260 259 260 263 267 268 263 263 262 259 257 261 260 260 262 265 266 268 265 265 267 267 263 259 258
242 248 252 257 262 266 267 270 275 273 274 276 278 276 270 272 273 276 277 274 277 278 276 274 266 260 263 264 268 266 265 261 257 259 256 258 262 263 267 268 266 269 268 266 268 267 263 262 262
245 247 251 257 263 267 269 271 275 277 276 276 274 273 269 271 272 272 273 273 272 277 283 280 267 259 259 260 266 264 259 256 256 259 260 260 261 265 268 270 267 271 273 269 270 273 269 269 268
244 247 251 255 262 266 269 271 271 274 275 275 273 271 271 272 270 270 270 271 273 279 275 271 265 260 258 261 268 266 262 258 257 257 256 258 263 267 269 275 274 273 274 274 271 271 270 272 272
Height
5877 5877 5878 5880 5881 5880 5880 5880 5879 5879 5879 5878 5878 5878 5877 5878 5877 5879 5876 5874 5874 5873 5872 5872 5871 5871 5870 5870 5870 5870 5870 5870 5870 5870 5871 5871 5871 5872 5872 5872 5873 5873 5873 5874 5874 5874 5874 5875 5875
5877 5878 5879 5880 5880 5879 5880 5879 5879 5879 5879 5878 5877 5877 5877 5877 5876 5875 5874 5874 5873 5872 5872 5871 5870 5870 5869 5868 5868 5869 5869 5869 5869 5869 5870 5870 5870 5871 5871 5872 5872 5872 5873 5873 5873 5873 5874 5874 5874
5877 5877 5879 5879 5878 5878 5879 5879 5878 5878 5878 5877 5877 5877 5876 5876 5875 5874 5874 5873 5872 5872 5871 5870 5869 5868 5868 5867 5867 5867 5867 5868 5868 5868 5869 5869 5869 5870 5870 5871 5871 5871 5872 5872 5872 5872 5873 5873 5873
5876 5877 5878 5879 5878 5877 5877 5878 5878 5877 5877 5877 5877 5876 5876 5875 5874 5873 5872 5872 5871 5870 5869 5868 5868 5867 5866 5866 5865 5865 5866 5866 5866 5867 5867 5868 5868 5868 5869 5869 5870 5870 5871 5871 5871 5871 5872 5872 5873
5875 5876 5877 5877 5876 5876 5876 5877 5877 5877 5877 5876 5876 5875 5875 5874 5873 5872 5872 5871 5870 5869 5868 5867 5866 5865 5865 5864 5864 5864 5864 5864 5865 5865 5866 5866 5866 5867 5867 5868 5868 5868 5869 5869 5870 5870 5871 5871 5871
5874 5875 5876 5875 5875 5875 5875 5876 5876 5876 5876 5875 5875 5875 5874 5873 5872 5871 5870 5869 5868 5867 5866 5865 5865 5864 5863 5863 5862 5862 5862 5863 5863 5863 5864 5864 5865 5865 5865 5866 5866 5867 5867 5868 5868 5869 5869 5870 5870
5872 5873 5873 5874 5874 5874 5874 5874 5874 5874 5874 5874 5874 5874 5873 5872 5871 5870 5869 5868 5867 5866 5864 5864 5863 5862 5861 5861 5861 5861 5861 5861 5861 5861 5862 5862 5862 5863 5863 5864 5865 5865 5866 5866 5867 5867 5868 5869 5869
5870 5872 5872 5872 5872 5873 5873 5873 5873 5873 5873 5873 5872 5872 5871 5870 5869 5868 5867 5866 5865 5863 5862 5862 5861 5860 5859 5859 5859 5859 5859 5859 5859 5859 5859 5860 5860 5861 5861 5862 5862 5863 5864 5864 5865 5865 5866 5867 5867
5868 5870 5870 5871 5871 5871 5871 5871 5871 5871 5871 5871 5870 5870 5869 5868 5867 5866 5865 5864 5863 5861 5860 5860 5859 5858 5858 5857 5857 5857 5856 5856 5856 5857 5857 5858 5858 5858 5859 5859 5860 5861 5861 5862 5863 5863 5864 5865 5865
5866 5868 5869 5869 5869 5869 5869 5869 5869 5869 5869 5869 5868 5868 5867 5866 5865 5864 5862 5861 5861 5859 5859 5858 5857 5856 5856 5855 5855 5854 5854 5854 5854 5854 5855 5855 5855 5855 5856 5856 5857 5858 5859 5860 5860 5861 5862 5862 5863
5863 5865 5866 5867 5867 5867 5867 5867 5867 5867 5867 5867 5867 5866 5865 5864 5863 5862 5860 5859 5858 5857 5857 5856 5855 5855 5854 5853 5853 5852 5852 5851 5851 5851 5852 5852 5852 5853 5853 5854 5855 5855 5856 5857 5858 5858 5859 5860 5861
5861 5863 5863 5864 5864 5865 5865 5865 5865 5865 5866 5865 5864 5863 5863 5862 5861 5859 5859 5858 5856 5856 5855 5854 5853 5852 5852 5851 5851 5850 5850 5849 5849 5849 5849 5849 5849 5850 5850 5851 5851 5852 5853 5854 5854 5855 5856 5857 5858
5858 5860 5861 5861 5861 5862 5862 5863 5863 5863 5863 5862 5862 5861 5860 5859 5858 5857 5856 5855 5854 5853 5852 5851 5851 5850 5849 5849 5848 5848 5847 5847 5846 5846 5846 5846 5847 5847 5847 5848 5849 5849 5850 5851 5851 5852 5854 5854 5855
5855 5856 5858 5858 5859 5859 5860 5861 5861 5861 5861 5860 5859 5858 5857 5856 5856 5855 5854 5853 5852 5851 5850 5849 5848 5848 5847 5846 5846 5845 5844 5844 5844 5843 5843 5843 5843 5844 5844 5845 5846 5846 5847 5848 5849 5850 5851 5852 5853
5852 5854 5855 5856 5856 5857 5858 5859 5859 5859 5858 5858 5857 5855 5855 5854 5853 5853 5852 5851 5850 5849 5847 5847 5846 5845 5844 5844 5843 5842 5841 5841 5840 5840 5840 5840 5840 5840 5841 5842 5843 5843 5844 5845 5846 5847 5848 5849 5850
5849 5851 5853 5854 5854 5854 5856 5856 5857 5856 5855 5855 5854 5852 5852 5851 5851 5850 5849 5849 5847 5846 5845 5844 5843 5843 5842 5841 5841 5840 5839 5838 5837 5837 5837 5837 5837 5837 5838 5839 5839 5840 5841 5842 5843 5844 5845 5846 5847
5846 5848 5849 5851 5851 5851 5851 5853 5854 5853 5853 5852 5851 5850 5849 5848 5847 5847 5846 5845 5844 5843 5842 5841 5840 5840 5839 5839 5838 5837 5836 5836 5835 5835 5834 5834 5834 5834 5835 5835 5836 5837 5838 5839 5840 5841 5842 5843 5844
5844 5845 5846 5847 5848 5848 5848 5849 5850 5850 5849 5849 5848 5847 5846 5845 5844 5843 5842 5841 5841 5840 5839 5838 5837 5837 5836 5835 5835 5834 5833 5833 5833 5832 5832 5831 5831 5831 5832 5832 5833 5834 5835 5836 5837 5838 5839 5839 5841
5840 5842 5843 5844 5844 5844 5845 5846 5846 5846 5846 5845 5845 5844 5843 5842 5841 5840 5839 5838 5838 5837 5836 5835 5834 5833 5832 5832 5831 5831 5831 5830 5830 5830 5829 5828 5828 5829 5829 5830 5831 5831 5832 5832 5833 5834 5835 5836 5837
5836 5838 5839 5841 5840 5840 5841 5842 5843 5843 5842 5842 5841 5841 5840 5839 5838 5837 5836 5835 5834 5833 5832 5831 5830 5829 5829 5828 5827 5827 5828 5828 5827 5827 5827 5826 5826 5826 5827 5828 5828 5829 5829 5830 5830 5831 5832 5833 5834
5831 5834 5835 5836 5836 5836 5837 5838 5839 5839 5838 5838 5838 5837 5836 5836 5834 5833 5833 5831 5830 5829 5828 5827 5827 5826 5826 5825 5824 5824 5824 5824 5825 5825 5825 5824 5823 5824 5824 5825 5826 5826 5827 5827 5827 5828 5829 5830 5831
5827 5829 5830 5831 5831 5832 5833 5833 5835 5835 5835 5834 5834 5834 5833 5832 5831 5830 5828 5827 5826 5826 5825 5824 5824 5823 5822 5821 5821 5822 5822 5822 5822 5822 5822 5822 5821 5821 5822 5822 5823 5823 5824 5824 5825 5825 5826 5827 5828
5823 5824 5825 5826 5827 5828 5828 5828 5832 5831 5831 5831 5831 5830 5829 5828 5827 5826 5825 5824 5823 5822 5821 5821 5820 5820 5820 5820 5820 5820 5820 5820 5820 5820 5819 5819 5819 5819 5819 5820 5820 5821 5821 5821 5822 5823 5823 5824 5825
5818 5819 5820 5821 5822 5823 5824 5825 5826 5827 5827 5827 5827 5826 5825 5824 5823 5822 5821 5820 5819 5818 5818 5817 5817 5817 5817 5817 5818 5817 5817 5817 5818 5817 5817 5817 5816 5816 5817 5817 5818 5818 5818 5819 5819 5820 5820 5821 5822
5813 5815 5816 5816 5817 5819 5820 5820 5822 5822 5822 5822 5822 5822 5821 5820 5819 5818 5817 5816 5816 5815 5815 5814 5815 5814 5814 5814 5815 5815 5815 5815 5815 5815 5815 5815 5814 5814 5815 5815 5815 5816 5816 5816 5817 5817 5818 5818 5818
5808 5810 5812 5813 5813 5815 5815 5815 5818 5818 5818 5818 5817 5817 5817 5816 5815 5815 5814 5813 5813 5812 5812 5812 5812 5812 5812 5812 5812 5812 5812 5812 5813 5813 5813 5813 5812 5812 5813 5813 5813 5813 5813 5814 5814 5814 5814 5815 5815
5804 5805 5808 5808 5809 5809 5810 5811 5812 5812 5813 5813 5813 5812 5812 5812 5812 5811 5811 5810 5809 5809 5809 5809 5809 5809 5809 5809 5809 5810 5809 5809 5810 5811 5811 5810 5810 5810 5811 5811 5811 5811 5811 5811 5811 5811 5811 5811 5811
5800 5801 5802 5803 5804 5804 5805 5806 5808 5808 5808 5808 5808 5808 5807 5807 5807 5807 5807 5806 5806 5806 5806 5806 5806 5806 5806 5807 5807 5807 5808 5807 5808 5808 5809 5809 5809 5808 5808 5809 5809 5809 5809 5809 5809 5808 5808 5808 5808
5795 5796 5797 5798 5799 5800 5800 5804 5804 5804 5803 5803 5803 5803 5803 5803 5803 5803 5803 5803 5803 5803 5803 5803 5803 5804 5804 5805 5805 5805 5805 5805 5806 5806 5807 5807 5806 5806 5806 5806 5806 5806 5806 5806 5806 5806 5806 5806 5805
5789 5791 5793 5794 5795 5795 5796 5801 5799 5799 5799 5799 5800 5800 5800 5799 5799 5799 5800 5800 5800 5800 5800 5800 5801 5801 5802 5802 5803 5803 5803 5803 5803 5804 5804 5805 5805 5804 5804 5804 5804 5804 5804 5803 5803 5803 5803 5803 5803